Tracking 19145 objects as of 25-Apr-2018
HD Live streaming from Space Station
objects crossing your sky now

FLOCK 3P 82

Track FLOCK 3P 82 now!
10-day predictions
FLOCK 3P 82 is classified as:


NORAD ID: 42046
Int'l Code: 2017-008DC
Perigee: 493.4 km
Apogee: 505.4 km
Inclination: 97.5 °
Period: 94.5 minutes
Semi major axis: 6870 km
RCS: Unknown
Launch date: February 15, 2017
Source: United States (US)
Launch site: SRIHARIKOTA (SRI)
aabbcc
Your satellite tracking list
Your tracking list is empty




NASA's NSSDC Master Catalog

Two Line Element Set (TLE):
1 42046U 17008DC  18115.46636316  .00002901  00000-0  12087-3 0  9996
2 42046  97.4565 180.8278 0008717 169.8201 190.3214 15.24500260 65318
Source of the keplerian elements: AFSPC